Location: Jaite
(41.2884°N, 81.5737°W)
Time: 21:28:14
(UTC+00:00)

Cosmos 2297 Rocket - Pass Details

Date: 18 January 2020
Orbit: 838 x 845 km, 71.0° (Epoch: 17 February)

Event Time Altitude Azimuth Distance (km) Brightness Sun altitude
Rises 00:26:27 0° 197° (SSW) 3,376 5.7 -22.7°
Reaches altitude 10° 00:28:52 10° 196° (SSW) 2,447 4.9 -23.1°
Maximum altitude 00:34:28 76° 111° (ESE) 868 2.0 -24.2°
Enters shadow 00:35:45 54° 42° (NE) 1,014 2.3 -24.4°
